User: anonymous   Login
Location: Codford Saint Peter
(51.1597°N, 2.0531°W)
Time: 04:28:12
(UTC+00:00)
Language:

Cosmos 1634 Rocket - Orbit

View from above orbital plane
View from above orbital plane
View from above satellite
View from above satellite

Ground track
Ground track

The orbit data is extracted from the following two-line orbital elements,

1 15598U 85022B   20337.48964942  .00000060  00000-0  45961-4 0  9991
2 15598  82.9388 247.3209 0022093 169.7882   3.6644 13.76577554794162
Epoch (UTC): 02 December 2020 11:45:05
Eccentricity: 0.0022093
inclination: 82.9388°
perigee height: 960 km
apogee height: 992 km
right ascension of ascending node: 247.3209°
argument of perigee: 169.7882°
revolutions per day: 13.76577554
mean anomaly at epoch: 3.6644°
orbit number at epoch: 79416

The dashed part of the orbit path shows where the satellite is in the earth's shadow,  

DLR